Theta_e
323 322 322 332 344 352 352 351 350 350 351 350 347 347 351 350 350 349 349 349 349 349 349 349 349 349 348 349 349 349 349 349 349 348 348 348 348 348 348 348 349 350 350 350 349 347 348 347 347 348 348 349 349 348 348 351 353 356 356 356 355 356 357 357 356 355 356 356 356 356 356 357 356 355 354 354 354 353 352 350 349 352 351 353 356
320 323 326 338 345 349 351 351 349 349 350 350 348 350 351 350 350 350 350 350 350 350 350 349 349 349 349 349 349 348 348 349 349 349 348 348 348 347 347 348 348 348 348 348 347 347 346 347 347 347 348 348 348 349 352 353 356 358 359 358 358 357 357 356 355 354 353 353 353 355 355 357 356 355 355 355 354 353 351 350 350 351 348 354 356
329 335 339 340 343 347 348 349 350 349 349 350 350 350 348 351 351 351 351 351 350 350 350 350 350 349 349 349 348 348 349 349 348 349 349 349 348 348 348 347 347 347 347 347 347 347 346 345 345 346 347 347 349 351 352 355 357 357 357 358 358 357 356 354 355 353 353 353 352 352 352 354 355 354 354 355 355 354 349 349 349 351 350 355 355
331 335 338 340 341 344 345 346 346 346 347 347 347 346 347 347 347 348 350 351 351 350 351 349 348 348 348 348 348 348 348 349 348 349 349 349 349 348 348 348 347 347 347 346 346 346 346 346 346 345 346 350 351 351 353 353 355 356 357 357 357 356 355 353 354 353 353 352 352 349 349 350 351 354 355 355 355 354 349 350 347 352 355 356 355
326 330 333 336 337 339 343 342 343 343 343 345 346 346 346 346 345 347 348 350 351 351 350 350 350 349 350 350 350 350 349 349 348 348 347 348 349 348 348 348 348 347 347 347 347 347 348 347 346 346 346 349 350 351 352 353 356 356 357 355 355 355 354 354 353 353 351 350 350 346 348 348 347 352 355 355 355 354 349 347 349 354 355 355 355
320 323 324 328 330 332 337 339 342 343 343 344 345 345 345 346 346 345 346 345 345 347 351 351 350 350 350 350 351 351 349 348 348 349 349 349 349 348 347 349 349 349 348 349 349 350 350 350 349 348 346 348 349 350 350 352 357 356 355 353 355 355 354 354 352 352 351 348 347 345 348 346 347 349 355 355 354 353 349 348 353 354 354 355 353
314 316 317 320 324 329 333 335 338 340 340 342 344 344 346 345 345 345 345 345 344 345 345 346 350 351 350 351 351 351 348 346 347 349 349 349 349 348 348 349 348 349 349 349 349 350 349 350 350 350 349 349 349 350 351 353 356 355 355 355 355 354 354 353 351 351 348 345 345 347 350 348 347 346 354 355 355 354 351 352 355 355 355 353 353
309 312 313 316 321 328 331 333 334 336 337 338 339 340 341 343 343 344 344 344 344 345 344 345 345 346 349 350 350 350 350 348 350 349 350 347 345 346 349 351 349 349 348 349 349 349 349 349 349 349 349 349 350 350 351 351 353 353 354 354 354 354 354 353 351 349 347 346 347 347 351 348 346 347 353 354 355 354 354 354 355 354 352 352 349
306 307 309 312 317 327 328 331 333 334 334 335 335 336 337 338 339 340 340 341 342 343 344 344 344 345 345 345 346 349 350 350 350 349 349 347 346 346 346 347 348 350 350 350 349 349 348 348 348 349 348 348 349 350 350 350 353 353 354 353 353 353 352 351 349 346 346 346 346 348 349 350 346 347 352 354 355 355 355 352 352 353 352 351 346
304 305 306 308 314 323 326 327 329 330 332 332 332 334 335 335 336 336 337 338 339 340 342 343 344 344 344 344 344 346 346 348 347 347 348 348 348 347 347 347 348 349 350 350 350 349 348 348 348 348 348 348 349 349 350 350 352 353 353 355 353 353 352 351 348 345 348 347 347 347 348 348 347 346 351 355 355 352 350 345 347 349 349 347 346
302 303 304 306 311 320 323 324 325 326 328 328 329 330 331 331 331 333 334 336 337 338 338 339 340 341 341 343 342 344 344 345 345 345 344 346 349 349 348 348 347 347 350 350 350 348 348 348 347 347 349 349 348 350 350 350 350 350 351 353 353 353 352 350 345 346 346 347 346 344 347 344 347 347 351 354 354 354 347 344 345 349 350 348 348
301 302 303 305 313 317 320 321 322 323 323 324 325 325 326 326 327 328 330 331 333 334 335 337 337 339 340 341 341 342 342 342 342 342 343 344 344 347 348 347 347 347 348 348 348 349 349 348 345 346 346 348 349 350 350 350 351 350 350 351 352 351 350 348 347 343 344 345 342 345 347 346 346 349 352 354 354 352 349 346 349 352 352 351 351
301 301 302 303 304 313 316 318 319 320 321 321 323 324 323 323 323 324 324 325 327 328 330 332 333 334 335 337 339 339 340 341 342 343 341 342 344 344 345 347 348 349 349 348 348 349 348 348 347 348 348 346 347 349 350 350 350 349 349 349 349 348 344 343 344 343 344 345 342 343 346 347 346 348 353 355 353 351 351 350 352 353 352 352 350
299 300 301 301 304 310 313 315 316 317 318 318 319 320 320 320 321 321 322 323 324 324 326 326 327 330 332 334 335 336 337 338 340 341 341 340 341 342 344 344 345 347 348 349 349 349 349 348 347 347 346 346 347 348 349 350 350 350 349 349 349 348 342 340 341 343 343 342 340 341 344 346 347 349 352 351 348 348 351 351 352 353 352 352 351
299 299 300 300 300 302 309 311 313 313 314 315 316 317 318 319 319 319 320 320 321 321 322 323 324 327 328 328 328 331 333 336 337 339 340 340 340 340 341 343 343 343 344 346 347 348 349 348 348 347 348 347 346 347 348 348 348 347 349 348 347 344 341 343 344 343 343 342 341 340 343 345 347 351 352 350 350 348 350 352 352 352 352 351 351
300 298 298 298 300 300 300 306 309 310 311 311 312 314 314 315 316 317 318 318 318 319 320 321 323 324 322 321 324 327 330 333 336 338 339 339 339 340 340 340 342 343 343 345 345 346 347 346 346 347 346 346 346 347 347 348 348 347 347 346 344 342 338 335 342 343 343 341 340 337 341 344 347 351 352 352 352 348 348 352 352 352 352 351 351
300 300 297 297 298 299 299 300 304 307 307 307 309 310 311 312 313 313 314 314 315 316 317 317 319 320 318 319 321 323 325 327 331 333 335 337 338 338 339 339 340 340 340 343 344 344 345 345 346 346 345 346 347 347 347 347 347 346 345 344 342 340 336 331 340 342 342 340 338 336 338 343 344 351 354 353 351 348 348 352 353 353 352 351 351
298 298 296 296 296 298 299 298 299 299 299 302 305 308 310 310 310 310 311 312 312 313 314 314 315 314 314 316 318 318 319 322 323 327 329 330 331 333 335 337 339 339 341 340 342 343 343 344 345 345 346 346 346 346 346 346 346 344 343 342 341 339 335 330 337 335 334 336 339 337 338 340 343 349 354 353 352 349 347 348 353 352 351 351 352
295 296 296 295 295 296 297 297 298 298 298 298 298 300 307 308 308 308 309 309 310 310 311 310 311 311 311 312 315 314 313 314 315 317 320 323 325 327 329 332 335 338 338 339 340 341 339 342 342 344 344 344 345 345 345 345 344 343 342 339 335 332 329 330 333 333 335 339 339 339 340 340 343 349 353 352 351 349 346 346 351 352 351 351 351
294 294 295 295 294 294 296 297 297 297 297 298 297 297 303 306 306 306 306 307 307 308 308 308 308 307 308 309 311 308 308 307 311 310 315 318 321 322 324 328 332 335 336 337 338 339 339 339 339 342 343 342 343 343 342 342 342 341 339 336 332 327 332 333 334 334 335 340 339 340 338 341 345 349 352 354 351 349 346 347 349 353 351 350 351
294 293 293 294 294 293 294 296 296 296 297 298 298 297 300 304 301 303 304 305 306 306 305 305 306 304 304 305 307 303 302 302 303 305 310 310 313 314 317 320 323 324 326 331 334 336 337 337 337 337 340 340 338 336 336 339 340 339 337 333 328 332 333 333 334 335 336 337 335 338 338 341 345 349 352 353 352 350 347 345 347 352 352 350 349
290 291 292 293 293 292 293 295 295 295 296 298 298 298 298 300 296 296 298 299 302 304 299 299 303 298 303 301 303 301 300 300 301 307 304 306 307 311 312 315 316 317 318 321 325 331 333 336 336 336 336 337 335 337 335 331 332 333 332 328 332 333 333 333 333 334 333 334 336 338 338 341 345 348 350 352 352 351 350 349 347 352 352 350 348
289 290 291 292 292 292 292 293 294 294 295 295 297 296 296 295 295 296 297 299 299 298 296 297 297 297 298 299 301 299 299 299 300 304 304 306 304 308 309 310 311 312 315 319 324 328 329 331 334 335 335 333 333 336 335 333 332 325 322 327 331 334 334 334 333 333 333 334 334 335 337 341 345 348 349 350 349 350 348 350 349 348 349 349 349
288 289 291 293 291 292 291 292 294 294 294 294 296 294 295 295 295 295 295 295 295 296 295 296 296 296 297 299 299 299 298 298 303 304 303 299 300 304 307 307 308 309 313 317 320 319 320 323 326 330 330 329 332 332 333 332 331 331 331 331 331 333 335 336 335 335 334 333 334 334 337 341 345 347 349 351 350 346 348 350 350 346 344 346 348
288 290 290 290 290 291 291 291 293 293 294 294 294 294 296 293 294 294 295 294 294 294 294 295 295 296 296 298 299 298 297 297 298 298 298 298 298 299 299 300 300 303 311 313 313 313 316 319 321 324 328 329 330 331 332 332 330 330 331 332 332 333 335 336 337 336 336 335 333 331 334 339 344 347 347 350 350 350 349 352 350 349 345 345 348
289 288 288 288 289 290 290 290 292 292 292 292 293 295 295 292 293 294 294 293 295 293 293 294 294 295 296 298 298 297 296 297 297 297 297 297 297 297 298 298 299 302 309 309 309 311 314 316 318 320 322 326 330 330 331 328 331 330 331 331 332 332 334 333 334 335 335 336 335 330 332 336 342 344 346 347 347 349 349 349 350 348 347 346 348
286 287 287 287 290 289 289 289 290 291 292 292 293 292 292 292 292 294 294 292 293 292 293 293 294 294 295 297 297 296 296 296 296 296 296 296 296 296 297 297 298 302 306 305 307 312 313 314 314 313 315 317 319 327 330 330 330 330 331 331 331 331 333 333 333 333 335 335 331 328 330 332 339 343 346 347 347 348 349 348 348 349 349 349 348
286 286 287 287 289 288 289 288 289 291 291 291 291 291 291 292 293 294 292 294 293 292 292 293 294 293 295 295 296 295 295 295 295 295 295 296 296 296 296 296 297 301 303 304 307 311 310 310 309 308 310 312 314 317 324 329 330 330 330 331 330 331 331 333 334 333 334 335 334 329 328 330 333 339 343 348 346 348 350 345 348 348 348 347 347
284 285 286 286 287 289 289 288 288 289 290 291 291 291 291 291 291 291 290 297 292 292 292 292 292 293 294 294 295 294 295 295 294 295 295 295 296 296 296 295 297 299 300 303 307 308 307 306 305 305 307 308 311 314 317 320 328 330 330 330 329 330 331 332 333 333 333 334 334 331 327 329 332 335 340 346 346 351 348 346 349 348 349 348 347
285 285 286 286 286 288 288 287 287 289 291 291 291 290 290 290 290 290 290 293 291 292 292 291 291 291 292 292 293 294 294 294 294 294 294 294 295 295 295 295 296 297 299 301 305 306 305 304 303 303 305 306 308 311 314 317 321 326 329 329 329 330 331 331 332 332 333 333 334 333 325 326 330 335 338 342 346 347 346 349 347 347 348 347 347
285 285 285 285 288 287 286 287 287 291 291 289 290 290 290 289 291 290 290 290 291 292 291 291 291 291 292 292 293 293 294 294 294 294 294 294 294 294 294 295 295 296 298 300 303 303 303 302 302 303 303 304 306 309 312 315 318 322 327 328 329 329 330 331 332 332 331 331 332 333 332 324 326 330 333 338 343 343 347 347 346 346 346 347 347
284 284 285 286 286 285 285 287 288 288 290 288 290 290 290 290 291 290 289 291 292 291 290 291 291 291 292 292 292 293 293 293 293 293 294 294 293 293 293 294 295 296 298 299 301 302 301 301 302 303 303 304 305 306 309 311 313 317 323 326 328 328 328 329 330 331 330 329 330 332 332 330 323 326 329 335 340 344 345 344 346 346 347 347 347
283 284 284 285 284 285 287 287 287 287 287 288 289 289 289 289 289 289 290 292 290 290 290 290 290 290 291 291 291 292 293 292 293 293 294 293 293 293 293 294 294 296 298 299 300 300 300 300 300 302 302 303 303 303 306 307 309 312 318 324 327 327 328 328 328 328 328 328 328 329 331 330 329 323 324 328 335 339 343 341 339 343 345 342 348
283 284 284 284 286 288 289 290 289 287 289 288 290 288 288 289 290 288 290 290 289 289 290 289 290 290 290 290 290 291 292 292 292 292 292 292 292 292 293 293 294 295 297 299 299 299 299 299 299 300 301 301 301 302 303 304 307 310 313 318 323 326 327 327 327 327 328 328 328 329 330 330 329 329 328 323 326 332 337 340 340 342 343 344 344
284 283 283 284 284 285 290 287 289 287 287 287 288 288 289 288 287 288 288 289 290 289 289 289 289 290 290 290 291 291 291 292 292 292 292 292 291 292 292 293 294 295 296 297 298 298 298 298 299 299 299 299 300 301 302 303 304 305 307 310 316 323 325 326 328 328 328 328 329 329 329 330 329 328 328 327 319 321 329 336 340 341 340 343 342
282 282 283 285 283 283 287 285 286 286 286 288 287 287 287 287 287 291 288 288 288 288 288 288 289 289 289 289 289 290 290 290 291 291 290 289 289 289 290 292 293 294 295 296 297 297 298 298 299 299 298 298 299 300 301 301 302 302 304 306 309 315 323 325 326 327 328 329 328 329 329 329 329 328 323 327 327 324 320 327 334 337 339 340 341
282 282 282 282 283 283 285 285 285 285 286 286 287 286 287 286 287 287 288 287 287 287 287 288 288 288 288 288 288 289 289 289 289 289 288 287 288 288 289 290 291 292 293 295 296 297 297 298 298 299 298 298 298 298 299 300 301 302 303 304 306 309 316 323 325 326 328 328 328 328 328 329 328 319 326 326 326 326 321 320 327 331 331 336 340
281 284 282 282 282 283 284 286 287 286 286 286 286 286 286 287 286 286 288 286 286 286 286 286 286 286 286 286 287 288 288 287 287 287 287 287 288 287 288 288 289 289 291 293 294 296 297 298 297 298 298 298 297 297 298 299 301 302 302 302 304 306 310 317 324 321 326 326 327 327 327 328 328 327 327 327 326 326 325 322 320 323 323 329 337
280 279 280 282 282 283 286 284 286 285 285 285 285 285 285 286 285 285 285 285 285 285 285 285 285 285 285 286 287 286 286 286 286 287 286 286 286 287 287 287 288 288 288 290 293 295 296 297 297 297 298 298 298 298 298 299 300 301 301 302 303 304 307 311 318 323 324 326 326 325 327 327 327 328 328 327 327 326 326 326 325 326 329 323 333
279 279 283 281 282 282 283 283 284 284 284 284 285 284 284 284 283 283 283 283 283 285 284 284 284 285 286 286 285 285 285 285 285 285 285 285 285 285 285 286 286 286 286 286 289 292 294 295 296 296 296 297 298 298 299 299 299 300 300 301 302 303 306 309 314 320 322 325 326 325 326 326 326 327 327 327 327 326 326 326 323 327 329 327 325
279 279 279 281 281 282 283 282 283 283 284 283 283 283 282 282 282 282 282 282 283 284 283 284 284 284 285 285 284 284 284 284 284 284 283 284 283 283 284 284 285 285 285 285 286 288 293 295 296 297 296 296 296 297 298 299 298 297 298 298 300 302 304 307 311 318 322 323 325 325 325 325 325 326 326 326 326 327 327 327 327 327 328 330 327
280 280 279 280 281 281 282 282 283 283 283 284 283 283 283 283 282 281 281 281 281 281 281 282 283 285 284 284 283 283 283 283 283 283 283 282 282 282 282 283 284 284 285 285 285 287 290 294 296 295 297 296 295 296 297 297 294 294 293 294 297 299 301 304 308 317 321 322 323 324 325 324 324 325 325 325 325 326 326 327 327 327 328 329 330
277 278 279 280 280 281 281 282 282 282 282 284 283 282 283 283 282 281 281 281 282 283 282 283 283 283 282 282 283 282 282 282 282 282 282 282 281 281 281 283 283 284 284 284 285 285 288 292 295 295 295 296 295 297 296 298 294 295 296 294 292 293 297 303 309 315 321 321 322 322 323 324 324 325 325 324 324 324 325 327 327 327 327 328 329
279 278 279 279 280 282 281 281 282 282 282 283 284 283 283 284 283 282 282 282 281 283 283 282 282 281 281 282 282 282 282 281 281 281 281 281 281 281 282 283 283 284 284 284 284 285 287 291 294 295 295 293 294 294 296 296 297 295 289 291 293 295 292 295 302 311 316 321 320 320 321 322 323 324 324 323 324 324 324 326 326 327 327 327 328
278 278 279 279 281 280 281 281 281 281 282 283 282 282 282 281 281 281 282 281 281 280 280 280 280 281 281 280 280 281 281 281 281 281 281 281 281 281 282 283 283 283 283 283 285 286 288 291 293 294 294 293 293 293 293 295 296 298 294 291 289 289 290 294 297 296 307 312 318 319 318 320 321 322 322 323 324 324 324 325 325 326 327 327 326
277 278 278 280 279 280 280 280 281 281 281 282 282 282 281 280 279 278 278 278 277 278 278 278 278 279 279 280 280 280 280 280 280 280 280 281 281 282 282 281 280 281 282 283 285 288 289 291 292 293 294 295 294 293 291 294 296 297 298 297 295 290 291 293 293 290 299 304 307 315 318 319 320 319 321 321 321 322 323 324 325 325 325 326 326
277 278 278 279 279 280 280 280 280 281 282 281 281 282 279 279 279 278 278 277 277 278 279 279 279 279 280 279 279 279 280 279 279 280 280 280 280 280 280 280 281 281 282 282 283 284 286 288 291 292 293 293 293 291 291 292 294 297 298 298 298 297 297 293 289 292 290 296 304 308 313 317 319 319 319 319 320 321 321 321 324 325 325 325 325
277 277 278 279 279 279 279 279 280 281 281 280 280 280 280 279 278 278 279 278 278 277 278 278 279 280 279 278 278 279 279 279 279 279 279 279 280 279 280 280 280 281 282 281 282 283 284 287 289 291 292 293 292 292 291 292 292 293 298 297 296 297 298 297 296 292 291 290 292 300 309 313 315 318 319 319 319 320 320 319 321 324 325 324 324
277 277 278 278 279 279 279 279 279 279 279 279 281 279 280 280 278 278 277 278 278 279 279 279 278 278 277 278 277 278 278 278 279 278 278 279 280 279 279 279 279 280 281 281 282 283 284 285 286 288 290 291 292 294 293 293 293 293 294 293 295 295 296 296 296 296 293 291 291 294 299 310 313 315 317 318 319 320 319 320 320 321 320 323 323
277 278 279 278 278 278 279 279 278 278 279 279 279 278 278 279 278 277 277 277 277 277 277 277 277 277 276 276 277 277 277 277 278 278 278 278 278 278 279 279 280 280 281 281 281 283 284 285 287 287 288 289 290 292 294 294 295 295 295 294 292 292 293 294 294 294 293 294 290 292 297 304 306 311 315 316 317 319 320 320 319 320 320 322 323
276 277 277 277 277 277 278 278 278 278 279 278 278 278 278 278 277 277 277 276 276 276 276 276 276 276 275 275 276 276 277 276 277 277 277 278 278 278 278 278 280 281 281 280 280 281 283 284 285 285 285 286 289 291 292 294 295 295 295 295 293 293 291 291 291 292 292 291 292 294 298 303 308 309 313 316 317 318 319 319 319 319 319 320 320
Wind_Speed
13 12 13 11 12 11 9 7 6 7 9 7 4 7 9 7 6 6 6 6 7 6 6 6 6 6 6 7 7 7 8 8 8 9 8 7 7 7 7 6 6 7 8 8 9 9 9 10 11 11 11 11 11 11 10 9 10 10 10 8 12 13 10 9 8 8 8 8 9 10 10 12 11 10 10 11 13 12 10 12 12 9 7 8 16
14 13 8 8 13 11 10 8 7 8 8 10 6 7 7 9 7 6 6 7 7 8 7 7 7 8 8 9 9 8 9 9 10 10 10 9 9 8 7 8 7 8 8 9 10 10 11 11 11 12 12 12 12 12 10 7 7 9 8 7 9 10 10 9 9 8 8 8 8 8 8 10 11 11 12 11 14 15 12 12 13 8 5 12 15
8 8 7 8 11 15 15 14 13 12 12 12 12 11 10 8 6 7 7 8 9 9 9 9 9 9 9 9 9 11 10 10 10 10 11 11 10 9 9 9 9 9 9 9 10 11 11 12 12 12 12 12 11 11 9 7 5 7 7 7 8 9 9 10 9 9 9 9 9 7 8 8 10 11 13 13 15 14 12 11 11 11 9 17 14
10 10 10 11 12 14 17 17 17 17 17 17 15 13 14 14 11 11 8 8 10 9 9 10 8 10 10 10 11 13 12 12 11 11 11 11 11 11 10 10 9 9 10 10 10 10 10 11 12 13 12 10 10 10 10 9 6 5 7 7 8 8 9 10 8 8 9 9 9 5 4 5 6 9 13 14 16 16 13 10 10 12 15 16 16
9 9 9 8 9 14 19 19 18 18 18 18 18 17 15 15 13 10 13 11 11 10 9 9 9 9 10 10 11 11 13 12 9 12 14 12 12 12 11 11 11 11 11 11 11 11 11 11 11 12 12 10 10 10 10 9 6 5 6 9 8 8 9 9 7 8 8 9 8 4 4 3 3 6 13 15 16 16 12 11 12 14 16 17 17
8 8 8 8 9 11 18 19 20 20 19 18 19 19 18 19 17 16 14 12 13 13 10 9 9 9 9 10 12 14 14 12 11 11 13 14 14 12 12 11 13 13 12 13 13 13 12 13 12 12 12 11 10 10 10 10 7 8 8 9 8 9 9 8 7 8 8 8 6 4 3 3 3 5 15 15 16 15 16 16 15 15 14 16 18
6 6 8 8 8 11 17 18 19 19 19 20 20 19 19 19 19 18 16 16 14 12 14 16 12 9 10 11 12 14 10 15 15 12 11 13 15 14 13 12 13 13 14 14 14 14 14 14 14 14 13 12 11 11 10 10 8 10 10 9 9 9 9 9 8 8 8 5 3 4 4 5 5 3 14 16 17 17 17 17 17 18 16 18 18
6 7 8 9 9 12 18 19 19 19 20 19 20 20 20 19 20 20 20 18 16 15 13 13 16 15 14 12 12 12 11 13 14 12 11 13 16 15 14 12 13 14 14 14 15 15 15 15 16 15 14 13 11 11 12 12 12 11 11 10 10 9 10 10 9 9 10 6 7 7 5 6 6 6 11 17 17 18 19 20 18 17 17 18 13
8 8 8 9 9 17 18 19 20 20 20 21 21 21 20 20 20 20 20 19 19 19 17 15 17 16 15 15 15 16 14 12 13 13 13 13 11 13 15 17 13 13 14 14 15 16 16 16 16 17 16 15 12 10 11 13 12 13 12 11 11 10 10 10 11 11 8 5 5 5 6 6 6 6 9 17 17 19 19 17 17 19 19 16 13
7 7 8 8 10 17 19 20 21 21 21 22 22 22 22 22 22 21 21 20 20 19 19 19 19 18 18 18 16 15 16 17 17 15 14 12 11 12 14 16 16 13 12 13 14 15 17 17 17 18 17 16 13 13 12 12 12 14 14 11 13 12 11 11 12 12 6 5 5 6 6 6 6 5 9 18 17 17 15 14 8 11 10 14 14
8 8 7 9 13 19 20 21 21 21 22 22 23 23 23 23 23 23 23 22 21 21 20 20 19 19 19 19 18 17 17 16 14 13 15 18 14 12 12 13 14 15 13 14 15 16 17 17 18 18 19 17 15 12 13 14 13 12 13 14 14 13 12 11 13 6 5 6 6 6 5 9 6 6 13 18 19 18 15 15 14 15 17 17 17
8 7 7 8 12 19 20 21 21 22 22 23 23 24 24 24 24 24 24 24 23 23 23 21 20 20 20 20 20 20 19 17 16 16 16 14 17 18 16 13 14 15 15 15 15 15 17 18 18 19 19 16 14 13 12 14 13 13 12 13 15 16 13 13 9 5 6 7 6 6 5 6 7 8 16 18 20 20 17 16 17 18 18 18 19
7 7 7 7 8 17 19 21 21 22 23 23 23 23 23 23 24 24 24 24 24 24 23 23 22 22 21 21 20 21 20 20 19 17 16 16 16 17 18 17 15 14 14 14 14 15 17 19 18 17 18 18 13 14 14 14 15 13 13 13 13 14 13 13 6 6 6 7 6 6 6 6 7 14 17 21 18 19 20 20 18 19 21 19 19
6 7 7 7 7 13 18 19 20 21 22 23 24 23 23 23 23 23 23 24 24 23 24 24 24 23 23 22 23 22 21 21 20 20 20 19 18 19 18 18 18 17 16 15 14 14 16 18 19 19 17 15 15 13 13 13 14 14 13 13 13 13 14 13 10 7 8 8 7 8 8 8 8 15 17 18 16 20 22 20 20 20 21 21 21
6 6 6 6 7 7 15 17 18 18 20 22 23 23 24 24 23 23 23 23 23 24 24 24 24 23 24 24 24 23 22 22 21 20 21 21 21 20 20 18 16 16 19 20 18 17 16 16 18 18 17 14 13 14 14 13 14 15 14 13 13 12 15 9 8 7 8 9 9 9 8 7 11 17 18 18 22 24 22 20 21 21 20 21 20
4 5 5 6 6 6 7 11 15 15 17 19 20 22 23 23 24 24 24 24 23 23 23 24 24 23 24 25 24 24 23 24 22 21 20 21 21 22 22 22 22 20 18 20 21 19 19 20 19 17 15 15 16 15 13 12 13 14 14 15 13 13 14 10 7 8 8 9 8 4 6 7 13 13 17 20 19 20 20 21 21 21 20 22 20
5 5 6 7 6 6 7 7 9 13 13 16 18 20 22 22 23 23 24 24 24 23 23 23 23 24 25 25 24 23 23 23 24 24 23 22 21 22 22 23 23 22 24 22 21 21 21 20 18 15 15 15 15 15 15 15 15 15 14 14 13 12 12 11 8 8 8 8 8 6 8 8 12 14 16 19 18 20 23 21 22 22 22 22 22
5 6 8 6 7 7 6 7 7 8 9 10 13 18 20 21 22 22 23 23 24 24 24 23 22 22 24 24 23 22 23 23 24 25 26 26 25 24 23 23 24 23 23 23 24 22 21 21 17 16 16 15 15 16 17 15 15 15 14 13 12 12 11 11 8 2 5 11 10 8 8 11 16 16 18 19 21 21 23 23 22 22 24 22 21
6 7 6 8 8 7 7 6 7 8 8 8 7 9 16 17 19 20 21 22 22 23 23 23 22 22 23 21 19 19 20 21 22 22 24 24 24 22 24 26 25 25 24 24 23 24 23 20 19 18 17 16 16 17 17 16 15 15 14 13 12 11 11 8 6 8 12 11 10 8 9 14 17 17 20 21 22 20 23 24 22 21 23 22 22
5 6 7 7 6 7 7 7 8 9 7 7 7 7 11 14 15 16 18 19 20 21 21 20 19 19 20 19 16 15 15 14 20 16 20 22 22 21 25 27 27 26 26 25 24 24 25 24 23 20 17 18 18 18 18 17 15 14 13 13 11 11 7 5 9 10 10 9 9 9 10 14 20 19 21 21 22 21 22 24 22 20 23 24 22
4 5 6 7 6 7 9 8 8 9 8 8 7 7 8 11 9 11 14 16 17 17 17 14 13 13 15 15 14 13 12 11 12 13 16 15 19 21 25 26 27 28 29 28 27 27 27 25 23 25 21 19 19 19 18 17 16 15 14 12 13 8 6 7 7 7 8 8 8 10 15 15 21 21 21 22 22 23 25 25 24 21 23 24 23
5 6 6 7 7 8 8 8 7 8 8 7 6 6 7 8 8 7 7 9 10 11 9 10 10 10 13 11 9 9 9 10 11 11 11 13 14 21 21 24 25 25 26 27 27 27 27 24 24 24 23 22 21 14 12 13 15 14 13 13 10 5 6 8 8 7 8 11 10 10 18 19 21 23 24 24 23 24 22 24 25 22 24 24 24
7 7 6 7 6 6 6 7 7 7 7 7 6 6 7 6 7 7 6 8 8 7 8 9 8 9 9 9 9 9 9 8 9 12 12 15 14 18 21 23 23 23 24 25 24 25 26 27 26 23 22 22 17 12 9 8 8 12 12 9 6 6 6 8 9 8 9 11 11 16 17 22 21 24 26 26 25 23 22 22 20 19 24 23 25
5 6 6 6 7 8 8 7 7 7 7 6 6 6 6 7 6 6 6 7 7 7 7 7 7 9 9 8 8 8 9 9 10 13 12 11 11 14 16 17 18 18 22 16 21 20 26 24 24 23 15 10 10 12 10 8 8 7 6 7 6 7 7 8 8 9 9 11 12 18 19 24 23 24 27 26 26 25 22 22 22 24 25 19 22
3 4 5 6 5 5 6 7 7 6 7 7 6 7 6 6 6 6 6 6 6 6 7 7 8 8 8 7 8 8 8 9 9 9 8 9 10 10 10 10 11 12 14 12 12 13 13 13 13 15 11 11 10 11 11 10 8 8 8 7 7 6 7 8 7 8 10 10 12 18 20 23 23 25 28 28 27 23 21 20 22 23 25 25 22
2 4 4 4 5 4 4 5 5 5 5 6 5 6 6 6 7 7 6 6 6 6 5 6 7 8 7 8 8 8 8 8 9 10 10 9 9 9 9 9 10 11 10 10 10 11 11 10 12 13 13 13 13 11 11 10 9 9 8 8 7 7 7 8 8 8 8 10 12 19 21 21 26 28 29 28 29 26 23 17 22 26 25 26 24
4 3 3 3 4 4 4 4 4 4 5 4 5 4 5 5 5 6 5 6 6 6 7 7 7 6 7 7 8 9 9 8 8 9 10 9 9 8 8 9 9 9 9 10 11 10 9 10 11 11 12 13 15 14 12 11 11 10 10 9 9 9 8 9 9 9 9 10 12 20 21 21 24 27 27 29 30 29 30 23 23 23 24 23 24
3 4 4 4 4 5 4 4 4 4 5 5 4 5 5 5 6 5 5 5 6 6 6 7 7 8 9 8 7 6 7 9 9 9 9 8 9 9 8 8 8 8 8 8 10 9 9 9 11 12 12 12 13 14 14 14 13 12 12 11 10 9 9 9 10 10 10 10 11 17 21 22 23 24 29 28 31 30 27 25 25 28 26 27 27
3 3 4 4 4 4 4 5 4 5 5 5 4 5 5 5 4 4 5 4 4 5 5 5 6 6 6 8 8 9 8 7 8 9 8 9 9 9 9 9 8 8 8 8 8 9 9 9 9 10 11 11 11 12 13 15 13 11 11 11 11 11 10 10 10 11 10 10 10 13 20 22 23 24 26 27 31 28 29 32 29 29 26 25 25
2 3 4 4 4 4 5 4 4 5 5 4 4 4 5 4 4 3 4 3 3 4 3 4 5 6 6 6 6 5 7 8 8 8 8 9 9 10 9 9 10 8 8 9 8 8 9 9 9 10 11 11 11 12 12 14 14 14 13 12 12 12 11 11 11 11 11 10 10 12 20 21 24 25 26 27 30 28 32 29 31 28 28 30 28
2 3 3 3 3 4 4 4 3 4 3 3 3 4 4 4 4 5 5 5 5 4 4 5 4 5 6 7 6 6 6 7 8 9 8 8 9 9 10 10 10 9 9 9 8 8 8 8 9 10 10 11 11 11 11 13 14 14 13 12 11 11 11 11 10 11 11 11 10 10 14 21 23 25 26 26 27 30 27 27 31 28 30 30 30
2 2 3 3 3 3 3 3 3 3 3 3 3 4 4 4 5 5 5 5 4 4 5 5 5 6 7 7 8 8 7 7 8 8 9 9 9 9 9 9 10 10 9 9 10 9 9 8 8 9 9 10 11 10 10 11 13 13 13 15 12 11 12 11 11 11 12 12 11 10 10 13 21 25 26 28 28 27 27 25 28 27 27 30 32
3 3 3 2 2 3 2 4 3 4 4 4 4 4 4 3 4 4 4 4 5 4 5 5 5 4 4 5 5 6 6 7 8 9 10 9 10 10 9 9 9 10 11 12 12 10 9 8 8 8 9 9 10 11 10 10 11 13 13 14 12 12 12 11 12 12 13 12 12 11 11 12 13 20 26 25 28 28 26 26 26 26 29 31 29
2 2 2 2 3 2 2 2 3 4 4 4 3 4 3 4 4 3 3 4 4 5 5 6 6 7 6 5 5 6 6 7 7 8 8 9 9 9 10 10 9 10 10 10 11 10 10 10 10 8 8 9 10 10 10 11 10 11 12 14 13 13 11 12 13 13 13 12 12 12 12 11 12 12 14 23 26 26 26 24 26 28 27 28 27
2 2 2 3 3 3 2 2 3 4 3 4 3 3 3 4 4 3 4 4 4 5 5 5 6 7 6 6 7 8 8 8 8 8 8 8 10 11 11 10 10 10 10 10 10 11 11 10 9 10 9 8 8 9 9 10 12 12 12 11 14 15 15 14 13 13 13 13 12 12 12 12 12 12 12 12 17 23 24 23 23 24 24 24 28
2 2 3 3 3 3 3 2 3 4 3 3 3 3 3 3 2 3 3 4 5 5 6 6 6 6 8 8 9 10 10 9 9 9 10 10 11 11 11 12 13 11 10 10 10 10 10 12 10 8 11 11 9 10 7 10 11 12 12 11 11 14 14 13 13 13 13 12 12 13 13 13 13 13 13 12 12 15 22 21 23 23 22 24 26
2 2 3 3 3 4 3 3 3 3 3 3 3 3 3 2 1 4 4 4 6 6 6 6 6 7 7 7 9 9 9 11 11 11 11 11 10 10 10 11 12 13 13 11 10 9 10 10 12 10 8 11 11 11 9 8 10 12 12 12 11 12 14 15 15 13 12 13 13 14 14 14 14 14 12 12 12 12 16 21 21 22 22 23 24
1 2 3 3 3 3 3 3 3 3 3 3 3 3 3 2 4 6 5 6 6 5 5 5 5 6 6 7 8 9 10 11 12 12 11 10 10 10 11 11 11 12 12 12 12 10 10 10 11 11 10 10 10 10 11 10 9 11 12 13 13 11 12 14 14 13 13 14 15 15 15 14 13 13 13 12 13 12 11 16 22 21 20 21 23
1 2 3 3 3 3 3 3 2 3 3 3 3 3 2 3 4 5 4 4 4 3 4 4 5 6 6 7 8 9 10 11 12 12 11 11 11 10 11 10 10 11 13 14 12 11 11 11 11 12 12 11 10 10 10 10 11 10 12 14 13 13 12 13 14 15 15 16 16 16 14 14 13 14 13 13 13 13 13 11 12 13 15 23 23
2 2 3 3 3 3 3 3 2 3 3 3 3 2 3 6 6 4 5 5 4 4 3 4 5 6 7 8 9 9 9 10 11 11 12 12 12 13 13 13 12 12 13 15 14 12 13 13 13 12 13 13 10 9 9 9 10 11 12 14 13 12 13 13 14 17 16 17 15 13 14 14 13 13 13 13 12 12 12 13 12 13 13 18 24
2 2 3 3 3 3 2 2 2 3 2 3 2 4 6 6 4 5 6 6 6 5 5 6 6 6 6 7 8 8 9 10 11 12 12 13 13 12 12 11 11 11 12 13 16 18 16 13 13 11 12 12 12 9 7 6 9 12 10 11 13 11 11 13 16 17 18 16 15 14 14 14 14 14 13 12 13 13 13 13 13 12 13 12 17
2 2 3 4 4 3 2 3 3 2 2 2 2 3 3 2 2 3 2 4 5 4 5 5 5 4 5 7 7 8 9 10 11 11 11 10 12 12 11 12 10 10 11 12 15 17 18 14 12 12 10 12 11 9 7 5 8 9 12 12 13 12 9 11 14 17 18 15 15 15 14 15 15 14 12 12 13 14 14 13 13 13 13 14 14
4 4 4 4 3 2 3 3 3 2 2 2 3 3 2 2 2 3 3 4 2 2 3 5 4 4 3 4 5 6 8 9 10 11 10 10 11 12 12 10 10 10 11 12 13 16 15 15 13 12 12 10 11 8 7 6 9 8 8 11 12 12 10 7 9 14 16 16 15 15 15 15 18 15 12 12 12 13 13 13 14 14 14 15 15
4 4 4 3 3 3 3 3 3 3 3 2 2 3 2 3 3 3 3 3 5 4 4 5 4 4 5 4 4 6 9 10 11 11 10 12 13 13 13 11 10 9 10 13 14 15 15 15 13 13 12 13 10 9 6 7 7 5 8 5 6 5 11 8 7 10 12 16 15 16 15 15 15 15 12 13 13 13 13 13 15 15 15 15 13
4 4 3 3 3 4 4 3 3 3 3 3 3 3 3 3 3 3 2 3 2 3 3 4 4 5 7 6 8 7 7 8 9 10 10 12 12 13 12 11 12 11 13 14 14 14 14 14 15 14 13 13 14 10 7 7 9 8 9 8 8 7 8 11 8 12 9 11 15 18 15 17 16 15 14 15 15 14 14 14 13 13 14 14 12
5 4 3 4 4 5 4 3 3 3 3 3 3 3 3 4 5 7 9 7 8 8 9 11 11 9 9 8 7 9 9 9 8 10 10 10 11 11 12 15 14 15 13 14 15 15 15 14 14 14 15 14 13 12 12 8 9 10 11 12 10 9 7 5 6 9 10 9 11 11 17 18 16 15 14 13 13 13 13 14 13 12 11 12 12
5 3 3 4 5 5 4 3 4 4 4 3 3 3 4 3 3 3 3 4 6 5 4 6 7 8 7 8 7 6 7 10 11 10 10 11 13 12 13 13 12 12 12 13 14 16 15 14 14 14 14 12 12 14 14 11 7 10 11 13 13 11 10 7 9 6 12 12 5 8 9 13 15 16 15 14 14 13 11 11 14 14 12 12 11
4 3 4 4 4 5 4 4 4 4 4 3 4 3 4 4 4 4 4 5 6 8 7 7 6 7 9 10 9 8 7 7 10 11 11 13 12 12 12 12 13 12 10 11 12 14 15 14 14 16 16 13 13 14 14 12 11 10 9 11 10 10 10 11 12 9 9 14 20 14 12 10 10 14 16 15 14 13 13 12 11 13 12 11 11
4 4 5 4 4 4 5 4 5 4 5 4 4 4 4 4 4 4 5 5 6 7 7 6 7 7 9 9 9 10 9 8 9 11 12 12 12 13 14 14 13 11 9 11 11 12 16 17 17 15 13 15 15 15 14 13 11 12 7 8 8 9 9 10 10 7 8 10 15 14 16 10 9 10 10 11 12 12 11 12 14 12 11 13 12
5 4 4 3 3 4 5 5 5 5 5 5 4 5 5 4 5 5 7 8 6 7 6 8 8 7 9 9 8 9 9 10 9 9 11 11 12 12 12 14 14 12 10 10 11 11 13 14 14 13 15 17 14 16 17 14 12 12 10 9 8 7 8 8 9 9 10 12 13 14 14 15 13 10 11 11 12 13 13 12 10 11 9 10 12
4 3 3 3 3 3 5 7 6 5 5 6 5 6 5 5 5 6 7 9 9 8 9 9 8 9 9 10 9 9 9 10 10 10 10 10 11 11 11 13 15 16 14 12 12 12 12 12 13 15 17 17 14 16 17 17 13 13 11 9 10 10 10 10 9 8 9 9 10 13 14 16 18 13 12 13 14 12 11 11 12 11 10 10 9
Wind_Direction
329 327 317 312 309 304 308 316 310 305 299 281 328 279 276 239 240 254 225 235 222 229 226 231 239 240 245 247 250 253 261 264 262 261 258 248 238 245 253 259 262 272 280 282 283 283 283 286 285 289 287 285 286 291 292 289 299 292 285 257 249 253 246 242 243 233 233 235 233 232 229 224 215 208 207 194 185 174 166 165 185 150 153 168 159
298 308 306 316 331 325 322 329 333 323 319 313 320 289 278 280 265 231 250 244 247 242 239 243 245 248 251 252 250 251 260 261 264 267 266 260 254 245 245 256 259 261 268 274 280 281 280 280 283 284 287 287 287 289 302 288 286 294 291 270 251 253 246 238 230 226 228 233 234 243 217 212 212 206 200 194 183 173 171 173 182 148 155 167 158
305 345 339 344 360 10 10 9 358 0 335 338 334 321 306 266 262 263 229 239 249 248 253 253 249 251 257 261 267 273 265 261 264 264 262 265 264 258 251 246 254 258 261 267 273 278 280 277 276 278 280 284 289 289 296 288 277 290 290 268 252 256 260 243 221 218 223 235 239 233 201 196 199 201 199 191 184 163 173 179 189 152 162 164 158
352 356 0 4 9 7 15 18 18 17 16 11 8 352 344 334 313 292 253 242 247 248 254 266 281 286 290 294 295 283 271 269 274 262 256 257 259 259 258 257 256 257 258 263 267 271 276 278 276 274 274 280 285 288 287 281 263 265 279 266 261 260 253 243 218 220 224 237 242 218 192 191 200 205 202 196 187 167 172 180 184 160 164 164 161
359 360 1 1 5 9 15 19 22 21 19 20 18 16 12 1 330 308 297 269 247 247 260 265 266 278 284 285 278 271 271 274 278 288 286 268 255 253 253 256 257 257 261 265 267 268 272 275 276 277 276 273 274 277 279 274 242 239 258 272 266 253 246 237 223 224 233 234 232 210 209 181 175 214 203 197 185 166 161 171 192 167 166 166 161
357 4 7 10 15 16 22 23 23 21 21 20 22 19 19 17 18 5 339 324 314 301 273 263 277 269 272 278 278 282 289 273 262 263 265 267 262 260 258 251 249 256 261 262 269 273 272 272 272 271 272 272 273 273 273 268 233 228 236 255 256 249 244 240 229 230 228 231 225 212 205 185 179 204 210 195 185 166 167 182 179 171 170 169 165
1 2 9 12 17 19 26 29 29 28 25 22 21 19 16 19 21 21 16 5 348 326 324 316 291 264 267 270 271 280 289 303 288 274 272 268 268 262 263 259 256 256 261 265 270 273 277 278 278 275 273 272 269 271 270 263 237 232 226 231 243 248 244 240 227 224 219 212 226 229 206 185 185 212 216 190 187 173 169 186 173 175 172 168 166
9 10 10 14 15 19 28 33 33 32 30 28 26 24 22 21 20 21 23 20 16 8 351 336 318 314 301 278 274 279 277 258 272 274 273 287 286 283 274 267 270 267 264 270 274 277 277 278 278 278 277 275 271 266 270 267 258 248 236 231 229 238 245 242 236 225 213 196 210 212 204 189 191 193 222 202 192 179 177 183 176 175 173 170 163
18 9 12 13 12 20 28 31 34 34 33 31 29 26 25 23 22 21 20 18 17 16 13 5 358 347 331 322 316 305 294 282 275 275 273 263 263 276 287 283 272 267 270 275 279 282 283 280 278 275 275 274 277 279 270 269 262 255 245 237 233 234 237 239 237 230 220 212 212 228 201 192 190 194 219 207 195 189 183 176 178 173 173 169 168
15 13 12 16 14 21 29 29 33 32 32 31 29 27 27 23 22 21 19 18 16 14 13 10 7 2 356 346 328 319 315 312 306 301 284 259 264 269 273 278 273 263 262 265 269 276 280 282 280 278 275 272 268 276 280 279 280 269 253 234 237 234 233 231 235 232 220 214 215 223 209 195 187 194 213 209 199 196 193 170 182 173 168 163 176
16 13 11 14 14 24 26 28 30 32 31 30 29 27 25 24 21 20 19 18 17 15 14 10 7 5 2 356 349 339 325 316 307 305 308 300 286 272 269 277 282 279 275 270 275 281 280 279 278 277 276 276 280 270 272 275 269 268 271 260 244 236 233 230 232 231 234 223 209 218 215 201 217 198 212 209 200 193 188 173 181 173 171 171 178
17 12 13 15 15 23 25 28 29 31 30 30 28 28 26 24 21 20 19 16 14 14 12 10 10 7 3 0 356 352 345 332 320 314 304 296 295 289 277 261 259 264 272 275 276 280 284 280 282 281 279 278 266 270 266 267 265 262 261 259 259 249 234 235 232 218 224 235 241 217 212 197 218 214 214 210 201 192 177 179 177 172 174 174 179
13 13 12 12 18 21 26 27 28 30 30 29 29 27 26 24 22 19 18 16 15 12 11 10 9 7 5 3 0 356 353 350 341 326 313 306 297 298 298 287 276 272 267 266 268 274 280 285 281 278 282 280 269 267 266 265 268 266 259 259 254 251 257 243 227 216 222 236 229 243 207 201 195 215 217 217 206 195 183 184 177 173 174 178 179
19 15 15 13 17 18 24 26 28 30 30 29 27 25 24 23 21 20 17 14 13 12 11 10 8 6 6 4 1 359 357 352 348 345 337 326 315 307 300 301 296 291 285 280 278 272 276 281 283 282 281 287 285 268 265 264 269 270 263 259 256 251 234 249 226 212 217 225 224 232 224 205 197 210 216 220 220 208 191 185 180 174 175 178 181
24 18 16 20 17 19 20 25 27 29 31 30 27 23 21 20 19 19 17 16 13 10 10 10 8 7 8 5 2 359 357 354 352 347 345 341 334 321 313 302 293 296 298 291 282 278 275 274 277 279 276 269 269 266 261 262 267 271 272 265 261 249 235 235 239 225 217 217 222 219 229 222 210 207 211 209 217 210 196 185 183 178 177 177 181
25 19 19 25 21 20 22 18 24 26 32 30 28 25 23 19 18 16 15 15 14 12 11 8 7 8 7 5 3 1 358 356 352 349 345 342 339 337 331 320 309 299 290 290 288 284 281 280 279 277 275 270 265 263 259 253 258 264 265 264 257 251 237 226 235 231 222 219 226 237 248 235 222 217 213 212 214 218 204 188 186 180 179 178 178
22 20 31 23 23 22 21 20 18 26 27 27 24 23 22 21 19 16 14 13 11 11 12 10 8 7 5 3 2 3 2 359 357 352 348 345 340 335 332 328 323 313 305 298 293 291 287 281 278 274 272 269 265 262 259 251 251 256 258 259 255 250 240 222 232 243 235 231 230 216 236 238 226 220 218 214 212 219 213 191 187 182 181 180 179
21 25 28 22 22 20 19 20 20 23 26 25 20 16 18 20 19 18 15 13 11 10 9 9 9 8 6 2 2 3 2 1 360 358 355 350 347 342 335 328 324 320 315 309 303 295 289 284 272 269 269 264 262 261 259 249 243 248 254 256 255 247 236 215 224 333 295 256 238 215 228 232 225 219 218 216 210 210 217 199 188 185 184 183 180
20 23 22 20 18 16 17 18 23 22 23 23 20 11 14 17 17 17 16 14 12 10 9 7 5 4 4 3 2 3 1 360 359 359 355 352 349 346 342 339 329 322 319 316 310 304 294 285 280 273 267 266 261 259 257 251 242 244 249 253 250 248 231 218 209 212 233 236 236 221 224 231 225 220 217 217 212 205 215 210 192 186 187 184 185
19 18 20 18 12 17 15 18 19 18 18 16 13 12 8 14 12 13 13 13 11 10 8 5 2 0 0 357 360 4 1 357 356 356 354 355 351 351 349 347 343 336 330 320 314 308 304 295 285 273 269 264 259 258 257 255 247 244 245 248 248 241 231 210 214 222 226 235 234 230 227 229 230 226 220 219 216 199 214 216 201 190 189 188 182
12 16 21 10 10 19 15 19 12 10 8 7 6 6 2 7 8 9 9 10 7 6 5 2 359 359 358 355 358 1 358 356 355 354 353 353 352 351 348 348 349 348 344 338 331 321 313 308 293 285 276 270 268 261 257 254 251 246 245 243 246 240 214 210 214 222 218 232 236 235 228 225 229 228 224 223 222 210 197 219 211 195 192 191 189
8 5 9 11 12 15 12 12 8 4 4 2 358 357 355 359 1 4 6 5 2 3 2 1 358 358 355 355 358 357 355 351 349 351 353 350 348 348 347 347 346 346 342 339 336 330 324 313 305 298 291 283 269 260 260 258 255 252 249 248 246 231 207 209 213 208 208 229 229 235 226 223 225 227 227 224 224 221 201 203 213 198 194 190 188
15 8 1 6 12 9 7 6 1 0 2 359 354 349 351 351 352 357 358 0 0 2 359 357 358 355 354 353 354 351 350 349 348 345 346 346 347 346 346 346 344 343 340 337 337 336 334 328 316 304 298 283 272 267 257 253 251 247 249 252 242 237 211 210 214 207 212 224 226 229 226 226 223 223 226 227 227 225 213 200 207 216 202 191 187
2 2 347 350 4 6 355 357 355 352 1 353 351 348 349 349 346 350 352 353 356 357 357 357 354 353 351 350 351 347 345 343 341 345 347 346 344 343 344 343 342 340 337 336 339 337 334 329 325 315 302 295 279 271 262 250 250 246 242 241 239 232 224 218 216 212 218 220 227 227 226 227 226 223 224 224 226 225 227 208 201 202 218 200 194
327 325 357 341 347 353 350 348 344 347 353 346 346 344 344 343 342 344 346 346 347 351 353 354 352 351 349 347 344 345 342 340 340 340 345 343 341 339 341 343 340 336 337 338 337 331 331 330 329 325 312 297 282 272 265 256 248 249 243 237 237 228 232 229 225 214 218 221 225 230 228 226 226 226 223 223 224 228 227 200 203 201 204 206 194
334 9 325 328 333 334 341 333 333 333 337 330 326 325 336 343 345 343 345 344 349 348 348 352 350 349 346 344 342 342 341 339 338 339 338 340 339 337 337 336 336 333 335 334 330 327 329 331 330 329 326 316 297 275 263 258 252 245 249 244 234 230 225 232 235 227 218 221 227 228 231 228 228 226 221 223 222 218 223 217 208 207 203 205 194
330 308 311 310 316 328 327 327 323 322 325 319 313 319 332 328 333 332 349 342 351 353 355 353 350 344 344 344 345 342 339 337 335 335 335 336 332 334 332 332 329 328 330 327 324 325 328 330 330 327 323 319 316 302 283 266 257 248 239 239 235 232 226 228 235 234 226 223 224 224 228 228 228 228 223 219 221 219 221 213 215 211 210 205 200
340 307 322 315 314 319 317 334 322 331 321 325 326 331 331 337 334 339 345 336 353 352 348 348 343 347 347 343 343 337 334 335 333 331 331 330 328 326 326 324 323 321 320 319 318 322 325 326 325 322 322 319 314 313 305 288 264 245 241 238 238 237 230 226 232 235 231 225 223 223 226 226 227 229 228 220 218 217 217 221 215 215 215 216 214
328 312 309 328 318 312 330 328 326 326 317 320 319 318 319 323 327 333 335 331 347 339 335 336 346 341 338 340 342 339 336 331 328 327 325 326 323 323 323 320 319 315 316 312 314 316 319 320 320 318 317 314 313 311 310 304 287 259 241 238 233 233 232 229 229 234 234 229 223 224 223 225 225 226 230 224 222 217 218 219 216 213 213 215 214
266 286 307 302 304 318 324 313 309 305 304 312 303 312 310 317 321 328 317 330 326 322 328 345 340 343 339 338 332 325 323 325 323 321 324 321 323 320 319 317 316 314 310 309 308 309 312 315 314 315 315 315 312 310 310 305 302 285 257 242 233 228 227 227 227 229 235 234 229 225 224 223 226 225 226 228 223 220 220 214 218 214 215 217 212
306 290 286 286 295 318 307 302 292 299 299 299 299 307 312 325 329 327 332 338 332 335 340 340 342 343 337 332 331 328 323 319 320 319 320 319 319 319 317 316 312 310 308 302 303 301 302 303 308 310 312 312 309 308 307 306 304 299 279 252 234 231 230 226 225 225 231 235 232 227 227 224 225 227 226 228 224 220 218 218 219 215 214 217 217
241 267 259 267 294 290 290 296 293 304 309 305 310 317 328 329 325 325 331 328 333 334 337 340 341 336 333 332 330 328 325 320 316 318 317 317 316 316 313 313 310 308 305 302 301 299 296 291 294 297 300 303 305 305 303 300 301 299 293 271 251 236 230 225 223 222 226 231 230 229 229 227 223 225 227 223 227 221 218 218 220 217 216 217 219
239 229 257 278 293 291 295 300 314 321 314 308 310 309 312 317 315 319 321 334 334 339 343 339 331 323 316 310 308 308 312 314 317 316 317 316 315 314 312 308 304 302 303 301 299 299 296 295 290 292 295 299 301 306 304 298 299 302 301 291 265 243 233 228 223 222 224 227 230 227 227 227 225 225 228 228 226 221 220 216 224 223 221 222 219
247 269 312 322 300 285 284 307 329 325 310 303 308 312 311 310 313 311 331 343 351 355 350 347 344 339 336 329 326 324 324 322 320 318 315 315 314 311 310 308 305 304 298 300 301 299 296 297 296 295 292 295 300 303 307 304 303 301 301 300 282 260 244 229 225 223 222 224 226 228 227 226 225 221 225 229 230 226 220 218 217 220 220 219 217
263 299 312 284 298 301 311 326 315 309 310 312 310 309 311 315 313 326 347 355 354 360 350 346 343 338 339 341 340 343 338 332 327 324 324 326 326 322 317 311 307 300 300 297 293 296 297 290 295 296 293 290 290 293 299 300 303 300 298 299 296 275 249 237 227 225 223 224 223 225 226 225 225 222 221 221 230 232 224 216 216 219 221 221 219
246 269 287 312 315 310 317 316 309 308 309 302 302 299 305 304 305 341 359 8 7 3 359 354 344 346 350 345 348 342 335 335 336 340 336 332 326 320 317 316 314 307 297 291 289 287 289 292 286 285 295 293 293 292 292 296 297 297 296 294 293 291 270 244 229 222 219 219 221 222 222 224 223 222 218 220 223 227 226 222 219 221 219 219 219
255 274 291 309 310 305 315 307 299 300 297 302 300 294 288 278 307 9 19 15 12 1 360 352 349 352 350 344 340 335 337 341 342 340 331 325 319 314 313 315 313 309 303 296 286 280 280 282 288 282 276 287 291 292 294 290 296 294 296 292 289 290 284 259 239 226 216 215 219 219 220 223 222 218 215 217 220 225 223 220 223 221 219 218 218
264 282 279 266 269 286 284 276 278 283 277 281 283 282 280 303 11 16 15 12 6 359 350 349 352 346 342 341 337 340 341 340 336 331 324 320 316 312 311 312 312 310 303 297 291 285 277 272 278 283 279 278 284 290 293 294 291 292 291 291 289 286 285 281 258 236 218 217 218 219 219 222 222 220 216 216 216 220 221 219 223 226 218 215 219
306 299 297 283 283 281 279 279 285 290 286 276 274 265 280 16 30 22 13 10 359 350 338 344 348 340 339 338 343 344 338 337 333 330 329 324 318 314 311 312 313 310 308 302 295 289 282 275 271 274 279 273 275 281 285 290 289 286 286 287 286 279 278 274 268 247 224 220 218 217 216 218 219 218 216 213 217 218 216 215 215 223 222 215 216
298 295 288 286 275 280 271 277 279 283 275 279 267 282 5 16 9 2 9 2 344 340 341 345 342 342 340 343 345 339 337 332 330 331 327 324 322 318 315 316 313 310 306 304 300 293 286 282 276 273 272 279 274 272 278 283 284 282 283 284 277 270 272 274 269 251 232 220 219 216 215 216 216 215 213 210 211 211 212 210 211 213 216 218 216
282 276 288 274 251 250 269 291 279 272 273 276 302 4 9 5 5 8 353 340 333 338 343 345 340 334 334 338 334 336 332 331 330 328 321 317 311 307 306 304 304 302 301 298 299 296 288 279 278 273 271 270 276 272 264 271 291 292 283 279 285 275 272 278 279 257 231 223 217 215 214 213 215 215 211 211 210 212 210 210 211 211 211 214 217
258 278 264 258 258 267 261 273 278 270 281 314 359 13 27 11 331 303 311 304 318 333 335 328 318 321 333 331 331 328 327 327 321 318 309 304 306 306 304 303 304 299 294 293 295 291 287 278 274 274 261 262 264 267 267 286 279 283 307 310 298 289 265 273 275 262 231 219 216 216 214 211 214 212 210 209 213 213 213 210 211 210 211 212 215
247 253 253 270 279 274 266 265 262 275 297 320 15 0 352 343 330 296 317 303 256 259 273 277 280 289 301 299 310 313 317 315 316 317 315 314 310 307 303 300 295 299 298 296 295 293 288 281 270 266 273 258 261 258 256 213 270 277 281 297 292 309 303 292 275 263 238 216 210 217 217 216 214 211 208 207 213 214 213 212 209 208 207 210 212
257 261 262 270 270 262 265 270 274 289 309 326 359 332 303 293 272 263 277 256 287 292 271 268 263 278 287 291 299 319 322 320 323 322 317 314 310 304 301 297 296 297 300 298 293 288 286 280 274 265 261 269 261 263 224 227 226 266 284 229 297 318 299 279 297 279 250 231 211 214 216 218 214 213 206 210 210 209 210 208 209 205 203 206 206
247 245 257 265 261 272 268 269 281 298 299 309 333 322 317 311 310 303 268 289 263 271 274 247 238 286 303 317 327 329 321 314 312 308 307 304 301 295 295 301 307 309 304 296 292 287 282 279 277 272 261 261 266 264 255 226 235 212 242 282 282 257 235 272 355 302 283 260 225 209 213 213 213 208 207 210 207 206 204 204 203 202 201 194 194
245 243 237 257 265 271 270 275 284 288 294 299 321 329 332 331 343 352 348 347 334 340 336 330 328 331 325 315 313 320 320 316 312 309 302 299 298 304 307 307 302 300 297 291 291 298 300 297 283 272 263 252 259 266 267 241 229 223 217 229 232 261 289 314 353 288 310 300 300 253 205 207 206 204 203 206 200 199 196 197 195 194 191 186 179
247 247 266 261 267 266 261 267 279 288 294 303 320 325 328 334 336 323 300 300 302 290 276 289 295 302 304 305 303 305 313 316 315 313 310 306 305 300 296 293 292 291 292 293 291 290 291 294 298 285 271 261 254 259 256 259 240 233 225 228 232 234 247 257 260 287 301 307 287 307 260 206 196 194 195 190 191 185 182 187 189 189 190 181 178
241 268 260 260 267 277 284 288 285 287 289 295 313 318 316 317 318 311 303 299 293 292 298 292 291 297 306 310 314 311 311 312 312 312 308 304 301 299 296 291 290 288 287 284 286 287 288 289 290 291 287 272 256 253 255 249 243 251 216 221 224 234 237 243 243 248 267 285 295 299 288 257 214 199 186 183 183 188 184 179 188 184 184 182 173
251 244 247 259 273 281 290 287 286 293 296 301 307 307 300 301 299 298 299 285 284 289 295 293 295 298 300 309 312 314 313 312 308 306 301 298 298 298 299 294 288 282 279 281 280 281 285 289 288 289 291 287 273 257 252 247 242 244 220 226 220 230 233 234 242 221 239 260 274 280 288 275 245 222 202 181 183 182 183 186 178 188 189 173 173
237 242 260 276 281 296 300 303 307 307 301 301 299 299 299 304 304 302 293 296 293 293 295 300 302 307 304 306 309 310 312 310 308 299 294 293 294 294 293 294 289 286 284 283 286 285 283 280 282 285 287 289 288 274 254 247 243 243 222 222 220 228 237 240 233 223 232 230 252 274 274 264 235 221 211 193 190 187 185 181 181 179 181 183 170
249 253 275 280 292 301 304 307 302 306 302 293 295 293 301 298 295 290 287 289 297 299 306 305 307 309 309 309 309 306 305 304 307 302 291 289 291 295 298 297 295 292 289 290 286 282 275 277 282 284 283 284 284 283 272 254 242 240 225 217 222 221 225 232 230 225 224 231 247 258 266 261 237 211 211 201 191 194 186 179 177 178 168 188 183